sat.trackr.live / text

‹ back to catalog

STARLINK-34282

NORAD 64454 · 2025-130S

PAYLOAD ACTIVE UNKNOWN

§ Identity

Operator
Country
US
Launch date
2025-06-18
Launch site
AFETR
Launch vehicle
Mass (kg)
RCS (m²)

Purposes: comms

External: N2YO · Heavens-Above · Gunter

§ Orbital elements

Epoch: 2026-09-20T05:20:47.532768Z

Period
94.01 min
Inclination
53.1593°
Eccentricity
0.0001328
Mean motion
15.31712581 rev/d
Perigee alt
469.8 km
Apogee alt
471.6 km
Semi-major
6,848.8 km
B*
5.0175e-4
RAAN
265.8973°
Arg perigee
96.9088°
Mean anomaly
263.2065°
Rev number
7,047

§ Raw data

STARLINK-342821 64454U 25130S   26263.22277237  .00015243  00000+0  50175-3 0  99902 64454  53.1593 265.8973 0001328  96.9088 263.2065 15.31712581 70471

JSON: /api/v1/satellites/64454 · /tle

For live sub-satellite position, see the globe view (requires WebGL).

§ Visibility from observer

Set your observer location to see the next 7 days of passes ≥ 10°. The values pass through the URL so the page stays shareable.

No JS? Fill the form by hand. The geolocation button needs JavaScript.